Location: Molveno
(46.1500°N, 10.9667°E)
Time: 01:11:41
(UTC+00:00)

CZ-4B DEB - Pass Details

Date: 05 July 2020
Orbit: 436 x 443 km, 97.3° (Epoch: 11 August)

Event Time Altitude Azimuth Distance (km) Brightness Sun altitude
Exits shadow 20:28:11 16° 153° (SSE) 1,235 6.0 -10.8°
Maximum altitude 20:30:42 61° 75° (ENE) 511 4.5 -11.1°
Drops below altitude 10° 20:34:03 10° 354° (N) 1,580 8.1 -11.5°
Sets 20:36:06 0° 351° (N) 2,457 9.3 -11.7°
